Regional Weather Roundup
Issued by NWS

Home | Current Version | Previous Version | Graphics & Text | Print | Product List | Glossary On
Versions: 1 2 3 4 5 6 7 8 9 10 11 12 13 14 15 16 17 18 19 20 21 22 23 24 25 26 27 28 29 30 31 32 33 34 35 36 37 38 39 40 41 42 43 44 45 46 47 48 49 50
000
ASUS44 KMEG 292200
RWRTN
TENNESSEE HOURLY STATE WEATHER ROUNDUP
NATIONAL WEATHER SERVICE MEMPHIS TN
500 PM CDT WED JUL 29 2015

TNZ002-004-019-021-049-052-054-088>092-292300-
WEST TENNESSEE

CITY           SKY/WX    TMP DP  RH WIND       PRES   REMARKS
MEMPHIS INTL   PTSUNNY   98  74  45 W8        29.97S HX 109
NWS MEMPHIS      N/A     98 N/A N/A MISG        N/A
JACKSON        SUNNY     97  75  49 W5        29.97R HX 109
DYERSBURG        N/A    N/A N/A N/A MISG        N/A  THUNDER
PARIS          SUNNY     91  77  62 W5        29.98S HX 105
$$

TNZ008-025-027-028-033-062-065-066-292300-
NORTH MIDDLE TENNESSEE

CITY           SKY/WX    TMP DP  RH WIND       PRES   REMARKS
NASHVILLE      PTSUNNY   93  76  57 NW8       29.97S HX 105
CLARKSVILLE    MOSUNNY   91  77  63 SW7       29.96F HX 104
CROSSVILLE     MOSUNNY   87  70  56 N7        30.04S HX  92
$$

TNZ061-075-076-078-094-096-097-292300-
SOUTH MIDDLE TENNESSEE

CITY           SKY/WX    TMP DP  RH WIND       PRES   REMARKS
FAYETTEVILLE   MOSUNNY   88  75  66 W8        30.00R HX  97
TULLAHOMA      SUNNY     88  73  62 VRB5      30.01R HX  96
WINCHESTER     MOSUNNY   90  75  62 N8        30.00R HX 100
MCMINNVILLE    SUNNY     90  79  70 N6        30.00R HX 105
COLUMBIA       SUNNY     91  81  70 SW3       29.98S HX 110
SHELBYVILLE    SUNNY     91  79  66 NW5       29.99S HX 107
$$

TNZ017-018-042-046-047-292300-
NORTHEAST TENNESSEE

CITY           SKY/WX    TMP DP  RH WIND       PRES   REMARKS
TRI CITIES     MOSUNNY   89  69  51 SW3       29.98F HX  93
ELIZABETHTON   CLEAR     88  70  55 VRB3      29.99F HX  92
$$

TNZ012-013-036-069-073-074-292300-
CENTRAL EAST TENNESSEE

CITY           SKY/WX    TMP DP  RH WIND       PRES   REMARKS
KNOXVILLE      PTSUNNY   91  70  49 E3        29.95F HX  96
OAK RIDGE      MOSUNNY   93  71  48 CALM      29.98S HX 100
GATLINBURG       N/A     90  70  51 CALM      29.96S HX  95
$$

TNZ083-085-099-292300-
SOUTHEAST TENNESSEE

CITY           SKY/WX    TMP DP  RH WIND       PRES   REMARKS
CHATTANOOGA    MOSUNNY   93  73  52 NE9       29.95R HX 102
$$

SKY/WX REPORTED AS FAIR MEANS FEW OR NO CLOUDS BELOW
12 THOUSAND FEET.




USA.gov is the U.S. government's official web portal to all federal, state and local government web resources and services.